{"data":{"norad_id":62048,"epoch":"2026-09-21T06:37:12.271008Z","epoch_age_seconds":118495,"freshness":"FRESH","line1":"1 62048U 24216S   26264.27583647  .00007489  00000+0  28132-3 0  9993","line2":"2 62048  43.0006 239.0525 0001443 268.6155  91.4532 15.27586539103702","mean_motion":15.27586539,"eccentricity":0.0001443,"inclination_deg":43.0006,"raan_deg":239.0525,"arg_perigee_deg":268.6155,"mean_anomaly_deg":91.4532,"bstar":0.00028132,"rev_number":10370,"period_min":94.266345194601,"perigee_km":482.03944966285,"apogee_km":484.01958231936,"semimajor_km":6861.1665159911,"source":"CELESTRAK","updated_at":"2026-09-22T09:00:49.489460Z"}}